St. Petersburg, Russia

9:04 PM MSK on June 22, 2018 (GMT +0300)
Pulkovo

Weather History for ULLI - September, 2017

Change the Weather History Date:

Thursday, September 14, 2017

  Actual Average Record
Temperature  
Mean Temperature 56 °F -  
Max Temperature 60 °F 58 °F 73 °F (1998)
Min Temperature 53 °F 44 °F 35 °F (1996)
Degree Days  
Heating Degree Days 8    
Growing Degree Days 6 (Base 50)    
Moisture  
Dew Point 53 °F    
Average Humidity 89    
Maximum Humidity 100    
Minimum Humidity 69    
Precipitation  
Precipitation 0.12 in - - ()
Sea Level Pressure  
Sea Level Pressure 29.28 in    
Wind  
Wind Speed 7 mph ()    
Max Wind Speed 18 mph    
Max Gust Speed 18 mph    
Visibility 6.0 miles    
Events Rain    
Averages and records for this station are not official NWS values.
T = Trace of Precipitation, MM = Missing Value Source: Averaged Metar Reports

Daily Weather History Graph

Daily Weather History Graph

Search for Another Location

Airport or City:

Astronomy

Sep. 14, 2017 Rise Set
Actual Time 6:24 AM MSK 7:22 PM MSK
Civil Twilight 5:41 AM MSK 8:05 PM MSK
Nautical Twilight 4:49 AM MSK 8:57 PM MSK
Astronomical Twilight 3:49 AM MSK 9:55 PM MSK
Moon 11:50 PM MSK (9/14) 4:30 PM MSK (9/14)
Length of Visible Light 14h 23m
Length of Day
12h 58m
Last Quarter, 38% of the Moon is Illuminated
Sep 14
Last Quarter
Sep 20
New
Sep 28
First Quarter
Oct 5
Full
Oct 12
Last Quarter

Hourly Weather History & Observations

Time (MSK) Temp. Dew Point Humidity Pressure Visibility Wind Dir Wind Speed Gust Speed Precip Events Conditions
12:00 AM 58 °F 54 °F 84% 29.42 in 6 mi SW 4.5 mph - - Rain Light Rain
12:00 AM 57.2 °F 55.4 °F 94% 29.39 in 5.0 mi SSW 6.7 mph - N/A Rain Light Rain Showers
12:30 AM 57.2 °F 55.4 °F 94% 29.39 in 5.6 mi SSW 6.7 mph - N/A Rain Light Rain Showers
1:00 AM 55.4 °F 55.4 °F 100% 29.39 in 5.6 mi SSW 4.5 mph - N/A Rain Light Rain Showers
1:30 AM 55.4 °F 55.4 °F 100% 29.39 in 6.2 mi SSE 4.5 mph - N/A   Mostly Cloudy
2:00 AM 55.4 °F 55.4 °F 100% 29.36 in 5.0 mi South 4.5 mph - N/A   Mostly Cloudy
2:30 AM 55.4 °F 55.4 °F 100% 29.36 in 6.2 mi SSW 4.5 mph - N/A   Mostly Cloudy
3:00 AM 57 °F 55 °F 89% 29.36 in 6 mi South 2.2 mph - - Rain Light Rain
3:00 AM 55.4 °F 55.4 °F 100% 29.33 in 6.2 mi SSW 6.7 mph - N/A   Scattered Clouds
3:30 AM 55.4 °F 55.4 °F 100% 29.33 in 6.2 mi SSE 4.5 mph - N/A   Scattered Clouds
4:30 AM 55.4 °F 55.4 °F 100% 29.33 in 6.2 mi South 6.7 mph - N/A Rain Light Rain Showers
5:00 AM 55.4 °F 55.4 °F 100% 29.30 in 6.2 mi SSE 4.5 mph - N/A Rain Light Rain Showers
5:30 AM 55.4 °F 55.4 °F 100% 29.30 in 6.2 mi SSE 4.5 mph - N/A   Mostly Cloudy
6:00 AM 56 °F 54 °F 91% 29.30 in 2 mi SSE 2.2 mph - - Rain Light Rain
6:00 AM 55.4 °F 53.6 °F 94% 29.30 in 6.2 mi South 8.9 mph - N/A   Overcast
6:30 AM 55.4 °F 53.6 °F 94% 29.27 in 6.2 mi South 8.9 mph - N/A   Mostly Cloudy
7:00 AM 55.4 °F 53.6 °F 94% 29.27 in 6.2 mi South 6.7 mph - N/A   Mostly Cloudy
7:30 AM 53.6 °F 53.6 °F 100% 29.24 in 6.2 mi South 6.7 mph - N/A   Scattered Clouds
8:30 AM 55.4 °F 53.6 °F 94% 29.24 in 6.2 mi South 6.7 mph - N/A   Mostly Cloudy
9:00 AM 56 °F 52 °F 81% 29.25 in 6 mi South 4.5 mph - -   Partly Cloudy
9:00 AM 55.4 °F 53.6 °F 94% 29.24 in 6.2 mi South 6.7 mph - N/A   Mostly Cloudy
10:00 AM 55.4 °F 53.6 °F 94% 29.21 in 6.2 mi SSE 6.7 mph - N/A   Mostly Cloudy
10:30 AM 55.4 °F 53.6 °F 94% 29.21 in 6.2 mi South 8.9 mph - N/A   Mostly Cloudy
11:00 AM 55.4 °F 53.6 °F 94% 29.21 in 6.2 mi South 6.7 mph - N/A   Mostly Cloudy
11:30 AM 57.2 °F 51.8 °F 82% 29.21 in 6.2 mi South 6.7 mph - N/A   Mostly Cloudy
12:00 PM 58 °F 51 °F 69% 29.23 in 6 mi South 4.5 mph - -   Overcast
12:00 PM 57.2 °F 51.8 °F 82% 29.21 in 6.2 mi South 6.7 mph - N/A   Mostly Cloudy
12:30 PM 57.2 °F 51.8 °F 82% 29.21 in 6.2 mi South 6.7 mph - N/A   Mostly Cloudy
1:00 PM 59.0 °F 53.6 °F 82% 29.21 in 6.2 mi South 6.7 mph - N/A   Mostly Cloudy
1:30 PM 59.0 °F 53.6 °F 82% 29.21 in 6.2 mi SSW 11.2 mph - N/A   Mostly Cloudy
2:00 PM 59.0 °F 53.6 °F 82% 29.24 in 6.2 mi SW 11.2 mph - N/A   Mostly Cloudy
2:30 PM 59.0 °F 53.6 °F 82% 29.24 in 6.2 mi SW 8.9 mph - N/A   Mostly Cloudy
3:00 PM 59 °F 51 °F 69% 29.25 in 6 mi SW 4.5 mph - -   Partly Cloudy
3:00 PM 60.8 °F 51.8 °F 72% 29.24 in 6.2 mi SW 8.9 mph - N/A   Mostly Cloudy
3:30 PM 59.0 °F 51.8 °F 77% 29.24 in 5.0 mi SSW 11.2 mph - N/A Rain Light Rain Showers
4:00 PM 55.4 °F 53.6 °F 94% 29.24 in 6.2 mi SW 11.2 mph - N/A Rain Light Rain Showers
4:30 PM 57.2 °F 53.6 °F 88% 29.24 in 5.6 mi SSW 11.2 mph - N/A Rain Light Rain Showers
5:00 PM 57.2 °F 53.6 °F 88% 29.27 in 6.2 mi SSW 6.7 mph 17.9 mph N/A   Mostly Cloudy
5:30 PM 57.2 °F 53.6 °F 88% 29.27 in 6.2 mi SSW 13.4 mph - N/A   Mostly Cloudy
6:00 PM 58 °F 52 °F 75% 29.27 in 6 mi SSW 6.7 mph - -   Partly Cloudy
6:00 PM 57.2 °F 53.6 °F 88% 29.27 in 6.2 mi SSW 13.4 mph - N/A   Mostly Cloudy
6:30 PM 57.2 °F 53.6 °F 88% 29.27 in 6.2 mi SSW 13.4 mph - N/A   Mostly Cloudy
7:00 PM 55.4 °F 53.6 °F 94% 29.27 in 6.2 mi SSW 13.4 mph - N/A   Mostly Cloudy
7:30 PM 55.4 °F 51.8 °F 88% 29.27 in 6.2 mi South 11.2 mph - N/A   Mostly Cloudy
8:00 PM 55.4 °F 51.8 °F 88% 29.27 in 6.2 mi South 11.2 mph - N/A   Partly Cloudy
8:30 PM 55.4 °F 51.8 °F 88% 29.27 in 6.2 mi South 11.2 mph - N/A   Partly Cloudy
9:00 PM 55.4 °F 51.8 °F 88% 29.27 in 6.2 mi SSW 13.4 mph - N/A Rain Light Rain Showers
9:30 PM 55.4 °F 51.8 °F 88% 29.27 in 6.2 mi South 13.4 mph - N/A Rain Light Rain Showers
10:00 PM 55.4 °F 50.0 °F 82% 29.24 in 6.2 mi South 13.4 mph - N/A   Partly Cloudy
10:30 PM 55.4 °F 50.0 °F 82% 29.24 in 6.2 mi SSW 13.4 mph - N/A   Partly Cloudy
11:00 PM 55.4 °F 50.0 °F 82% 29.24 in 6.2 mi SSW 15.7 mph - N/A   Partly Cloudy
11:30 PM 57.2 °F 50.0 °F 77% 29.27 in 6.2 mi SSW 17.9 mph - N/A   Scattered Clouds